TimeCST,TemperatureF,Dew PointF,Humidity,Sea Level PressureIn,VisibilityMPH,Wind Direction,Wind SpeedMPH,Gust SpeedMPH,PrecipitationIn,Events,Conditions,WindDirDegrees,DateUTC
12:53 AM,54.0,35.1,49,29.85,10.0,South,13.8,-,N/A,,Clear,180,2012-11-08 06:53:00
1:53 AM,53.1,33.1,47,29.83,10.0,South,13.8,-,N/A,,Clear,190,2012-11-08 07:53:00
2:53 AM,52.0,33.1,49,29.82,10.0,SSW,11.5,-,N/A,,Clear,210,2012-11-08 08:53:00
3:53 AM,52.0,32.0,47,29.81,10.0,SW,12.7,-,N/A,,Clear,220,2012-11-08 09:53:00
4:53 AM,51.1,30.0,44,29.81,10.0,SW,13.8,-,N/A,,Clear,220,2012-11-08 10:53:00
5:53 AM,46.9,28.9,50,29.84,10.0,SSW,12.7,-,N/A,,Clear,210,2012-11-08 11:53:00
6:53 AM,46.9,28.0,48,29.85,10.0,SSW,12.7,-,N/A,,Clear,210,2012-11-08 12:53:00
7:53 AM,48.9,28.0,44,29.87,10.0,SW,11.5,-,N/A,,Clear,230,2012-11-08 13:53:00
8:53 AM,59.0,26.1,28,29.87,10.0,WSW,12.7,-,N/A,,Clear,240,2012-11-08 14:53:00
9:53 AM,64.9,26.1,23,29.86,10.0,West,8.1,-,N/A,,Clear,270,2012-11-08 15:53:00
10:53 AM,71.6,26.6,19,29.97,10.0,Variable,4.6,-,N/A,,Clear,0,2012-11-08 16:53:00
11:53 AM,79.0,28.0,15,29.81,10.0,SW,4.6,-,N/A,,Clear,220,2012-11-08 17:53:00
12:53 PM,80.1,25.0,13,29.79,10.0,WSW,11.5,-,N/A,,Clear,250,2012-11-08 18:53:00
1:53 PM,80.1,21.0,11,29.76,10.0,West,11.5,-,N/A,,Clear,270,2012-11-08 19:53:00
2:53 PM,82.9,21.0,10,29.74,10.0,West,12.7,-,N/A,,Clear,270,2012-11-08 20:53:00
3:53 PM,82.9,24.1,12,29.74,9.0,WSW,21.9,31.1,N/A,,Clear,250,2012-11-08 21:53:00
4:53 PM,79.0,24.1,13,29.76,10.0,SW,17.3,27.6,N/A,,Clear,230,2012-11-08 22:53:00
5:53 PM,73.0,25.0,17,29.79,10.0,SW,11.5,-,N/A,,Clear,230,2012-11-08 23:53:00
6:53 PM,64.9,27.0,24,29.81,10.0,SSW,8.1,-,N/A,,Clear,200,2012-11-09 00:53:00
7:53 PM,63.0,27.0,26,29.82,10.0,SSW,8.1,-,N/A,,Clear,200,2012-11-09 01:53:00
8:53 PM,62.1,27.0,26,29.79,10.0,SSW,10.4,-,N/A,,Clear,200,2012-11-09 02:53:00
9:53 PM,59.0,26.1,28,29.79,10.0,SSW,9.2,-,N/A,,Clear,200,2012-11-09 03:53:00
10:53 PM,57.9,27.0,31,29.78,10.0,SSW,11.5,-,N/A,,Clear,210,2012-11-09 04:53:00
11:53 PM,63.0,28.0,27,29.76,10.0,SSW,16.1,-,N/A,,Clear,210,2012-11-09 05:53:00